Погода в Рюкфене

Нидерланды     51°31′58″N   4°33′35″E
темп.,
°C
ветер,
м/с
пор.,
м/с
влажн.,
%
обл.,
%
осадки,
мм/ч
давл.,
гПа
погр.,
м
31 июля, сб
сб3123:00+15юз9157797 0.0 10051012
02:00+16зюз9148087 0.0 1005995
05:00+15зюз81380100 0.4 10051157
08:00+15зюз81287100 1.0 1006849
11:00+18зюз8117681 0.8 10081119
14:00+20з8106559 1.3 10091356
17:00+20з685922 0.3 10091435
20:00+18з46725 0.8 1009795
1 августа, вс
вс123:00+15зюз37915 0.1 1010136
02:00+14юз48945 0.1 1010213
05:00+12юз47976 0.0 1009184
08:00+14юз589137 0.0 1009286
11:00+19зюз567148 0.3 1009785
14:00+21з666516 2.4 10091260
17:00+20зсз666693 2.5 10101182
20:00+18ссз358024 3.5 1010254
2 августа, пн
пн223:00+14ссз359397 0.6 1012101
02:00+12ссз229213 0.6 101322
05:00+13ссз228889 0.0 101331
08:00+15ссв118299 0.0 101478
11:00+15зсз1184100 0.6 1015252
14:00+16з1181100 0.9 1015342
17:00+18ссз216613 0.0 1015722
20:00+17с22679 0.0 1014430
3 августа, вт
вт323:00+13с3579100 0.1 101586
02:00+13св2381100 0.4 101493
05:00+13ссв1280100 0.1 101341
08:00+13ссз238153 0.1 1014106
11:00+16ссв3375100 0.0 1013715
14:00+18ссз336873 0.1 10131021
17:00+18ссз446792 0.3 10131047
20:00+17ссз466997 0.4 1013452
4 августа, ср
ср423:00+15ссз347665 0.0 1014118
02:00+14ссз228182 0.0 101441
05:00+11с11906 0.0 101311
08:00+14юв018218 0.0 1014101
11:00+18ю1267100 0.3 1014814
14:00+21ю1248100 0.8 10131790
17:00+22зюз3341100 0.0 10121919
20:00+19зюз3565100 0.1 1012167